Location: Katherine
(14.4670°S, 132.2670°E)
Time: 23:20:41
(UTC+09:30)

ISS - Pass Details

Date: 21 June 2018
Orbit: 403 x 407 km, 51.6° (Epoch: 26 June)

Event Time Altitude Azimuth Distance (km) Brightness Sun altitude
Exits shadow 06:08:40 24° 233° (SW) 900 -2.7 -13.3°
Maximum altitude 06:10:27 59° 306° (NW) 471 -3.7 -12.9°
Drops below altitude 10° 06:13:41 10° 27° (NNE) 1,457 -0.3 -12.2°
Sets 06:15:46 0° 31° (NNE) 2,312 0.9 -11.7°
